Powrót do katalogu

STARLINK-32284

AktywnyŁącznośćVLEO
NORAD 61005·PAYLOAD·🇺🇸 United States

Wystrzelony Sep 5, 2024 z Cape Canaveral Space Force Station

Loading…

Następne Przeloty (najbliższe 24 godziny)

TLE

ŚwieżeSource: CelesTrak SupGP

Epoka: Sep 15, 2026, 03:11 UTC

1 61005C 24158R   26258.13312500 -.00019070  00000+0 -56335-3 0  2581
2 61005  53.1573 262.4638 0001417  85.4248 144.2883 15.34403973    13

Śledź STARLINK-32284 w czasie rzeczywistym z AllMySat

Download on the App Store